Hourly Weather Moscow

Today, 7 July, Tuesday

Time Temperature Precipitation Wind Pressure Humidity
00:00 +23°C° 0 mm 2 mps 744 mmHg 80%
01:00 +21°C° 0 mm 2 mps 744 mmHg 81%
02:00 +21°C° 0 mm 2 mps 744 mmHg 82%
03:00 +20°C° 0 mm 2 mps 744 mmHg 83%
04:00 +21°C° 0 mm 2 mps 743 mmHg 81%
05:00 +21°C° 0 mm 2 mps 743 mmHg 80%
06:00 +21°C° 0 mm 2 mps 743 mmHg 78%
07:00 +24°C° 0 mm 2 mps 743 mmHg 74%
08:00 +25°C° 0 mm 3 mps 743 mmHg 69%
09:00 +27°C° 0 mm 3 mps 743 mmHg 65%
10:00 +28°C° 0 mm 3 mps 743 mmHg 62%
11:00 +29°C° 0 mm 4 mps 742 mmHg 59%
12:00 +30°C° 0 mm 4 mps 742 mmHg 56%
13:00 +30°C° 0 mm 4 mps 742 mmHg 54%
14:00 +32°C° 0 mm 4 mps 742 mmHg 52%
15:00 +33°C° 0 mm 4 mps 742 mmHg 49%
16:00 +32°C° 0.2 mm 4 mps 741 mmHg 53%
17:00 +30°C° 0.2 mm 3 mps 741 mmHg 56%
18:00 +30°C° 0.2 mm 3 mps 741 mmHg 59%
19:00 +28°C° 0.5 mm 2 mps 741 mmHg 65%
20:00 +27°C° 0.5 mm 2 mps 740 mmHg 70%
21:00 +26°C° 0.5 mm 2 mps 740 mmHg 76%
22:00 +25°C° 0 mm 2 mps 740 mmHg 79%
23:00 +25°C° 0 mm 2 mps 740 mmHg 82%

Tomorrow, 8 July, Wednesday

Time Temperature Precipitation Wind Pressure Humidity
00:00 +25°C° 0 mm 3 mps 740 mmHg 86%
01:00 +24°C° 0.6 mm 3 mps 739 mmHg 85%
02:00 +24°C° 0.6 mm 3 mps 739 mmHg 85%
03:00 +24°C° 0.6 mm 3 mps 739 mmHg 85%
04:00 +24°C° 0.3 mm 3 mps 739 mmHg 84%
05:00 +24°C° 0.3 mm 3 mps 739 mmHg 83%
06:00 +22°C° 0.3 mm 3 mps 739 mmHg 82%
07:00 +24°C° 0 mm 3 mps 739 mmHg 78%
08:00 +25°C° 0 mm 3 mps 739 mmHg 75%
09:00 +26°C° 0 mm 3 mps 739 mmHg 71%
10:00 +26°C° 0 mm 3 mps 739 mmHg 70%
11:00 +26°C° 0 mm 3 mps 740 mmHg 68%
12:00 +26°C° 0 mm 2 mps 740 mmHg 66%
13:00 +26°C° 0.2 mm 3 mps 741 mmHg 68%
14:00 +25°C° 0.2 mm 3 mps 741 mmHg 70%
15:00 +23°C° 0.2 mm 4 mps 742 mmHg 72%
16:00 +22°C° 0.3 mm 4 mps 742 mmHg 73%
17:00 +21°C° 0.3 mm 4 mps 743 mmHg 75%
18:00 +20°C° 0.3 mm 4 mps 743 mmHg 76%
19:00 +19°C° 0.2 mm 4 mps 743 mmHg 79%
20:00 +18°C° 0.2 mm 3 mps 743 mmHg 81%
21:00 +17°C° 0.2 mm 3 mps 743 mmHg 84%
22:00 +17°C° 0 mm 3 mps 743 mmHg 84%
23:00 +16°C° 0 mm 3 mps 743 mmHg 85%

Day after tomorrow, 9 July, Thursday

Time Temperature Precipitation Wind Pressure Humidity
00:00 +16°C° 0 mm 3 mps 743 mmHg 85%
01:00 +16°C° 0 mm 3 mps 743 mmHg 85%
02:00 +16°C° 0 mm 3 mps 744 mmHg 84%
03:00 +16°C° 0 mm 3 mps 744 mmHg 83%
04:00 +16°C° 0 mm 3 mps 744 mmHg 82%
05:00 +16°C° 0 mm 2 mps 744 mmHg 80%
06:00 +16°C° 0 mm 2 mps 744 mmHg 79%
07:00 +17°C° 0 mm 2 mps 744 mmHg 73%
08:00 +18°C° 0 mm 2 mps 744 mmHg 68%
09:00 +19°C° 0 mm 3 mps 744 mmHg 62%
10:00 +20°C° 0 mm 3 mps 745 mmHg 58%
11:00 +22°C° 0 mm 3 mps 745 mmHg 55%
12:00 +24°C° 0 mm 3 mps 745 mmHg 51%
13:00 +24°C° 0.2 mm 3 mps 745 mmHg 52%
14:00 +24°C° 0.2 mm 3 mps 745 mmHg 53%
15:00 +22°C° 0.2 mm 4 mps 745 mmHg 54%
16:00 +22°C° 0.1 mm 4 mps 745 mmHg 57%
17:00 +21°C° 0.1 mm 3 mps 745 mmHg 59%
18:00 +20°C° 0.1 mm 3 mps 745 mmHg 61%
19:00 +19°C° 0.1 mm 3 mps 746 mmHg 65%
20:00 +18°C° 0.1 mm 3 mps 746 mmHg 69%
21:00 +17°C° 0.1 mm 3 mps 746 mmHg 72%
22:00 +17°C° 0 mm 3 mps 746 mmHg 74%
23:00 +16°C° 0 mm 3 mps 747 mmHg 77%

10 July, Friday

Time Temperature Precipitation Wind Pressure Humidity
00:00 +14°C° 0 mm 3 mps 747 mmHg 79%
01:00 +14°C° 0 mm 3 mps 747 mmHg 80%
02:00 +13°C° 0 mm 3 mps 748 mmHg 80%
03:00 +13°C° 0 mm 3 mps 748 mmHg 80%
04:00 +13°C° 0 mm 3 mps 748 mmHg 78%
05:00 +13°C° 0 mm 3 mps 749 mmHg 76%
06:00 +14°C° 0 mm 3 mps 749 mmHg 74%
07:00 +16°C° 0 mm 3 mps 750 mmHg 68%
08:00 +18°C° 0 mm 3 mps 750 mmHg 62%
09:00 +19°C° 0 mm 4 mps 750 mmHg 56%
10:00 +20°C° 0 mm 4 mps 750 mmHg 52%
11:00 +21°C° 0 mm 4 mps 751 mmHg 48%
12:00 +22°C° 0 mm 4 mps 751 mmHg 45%
13:00 +23°C° 0 mm 4 mps 751 mmHg 43%
14:00 +23°C° 0 mm 4 mps 751 mmHg 41%
15:00 +25°C° 0 mm 4 mps 751 mmHg 39%
16:00 +23°C° 0 mm 4 mps 751 mmHg 42%
17:00 +24°C° 0 mm 3 mps 751 mmHg 44%
18:00 +24°C° 0 mm 3 mps 751 mmHg 46%
19:00 +21°C° 0 mm 2 mps 751 mmHg 51%
20:00 +20°C° 0 mm 2 mps 751 mmHg 56%
21:00 +20°C° 0 mm 1 mps 752 mmHg 61%
22:00 +19°C° 0 mm 1 mps 752 mmHg 64%
23:00 +18°C° 0 mm 1 mps 752 mmHg 67%

11 July, Saturday

Time Temperature Precipitation Wind Pressure Humidity
00:00 +16°C° 0 mm 1 mps 752 mmHg 70%
01:00 +16°C° 0 mm 1 mps 752 mmHg 73%
02:00 +16°C° 0 mm 1 mps 752 mmHg 76%
03:00 +15°C° 0 mm 1 mps 753 mmHg 78%
04:00 +16°C° 0 mm 1 mps 753 mmHg 77%
05:00 +16°C° 0 mm 2 mps 753 mmHg 77%
06:00 +16°C° 0 mm 2 mps 753 mmHg 76%
07:00 +18°C° 0 mm 2 mps 753 mmHg 70%
08:00 +20°C° 0 mm 3 mps 753 mmHg 65%
09:00 +21°C° 0 mm 3 mps 753 mmHg 59%
10:00 +22°C° 0 mm 4 mps 753 mmHg 55%
11:00 +23°C° 0 mm 4 mps 753 mmHg 51%
12:00 +26°C° 0 mm 4 mps 753 mmHg 46%
13:00 +26°C° 0 mm 5 mps 752 mmHg 46%
14:00 +26°C° 0 mm 5 mps 752 mmHg 46%
15:00 +27°C° 0 mm 5 mps 752 mmHg 45%
16:00 +26°C° 0 mm 5 mps 752 mmHg 48%
17:00 +26°C° 0 mm 4 mps 752 mmHg 50%
18:00 +26°C° 0 mm 4 mps 751 mmHg 53%
19:00 +23°C° 0 mm 4 mps 751 mmHg 59%
20:00 +22°C° 0 mm 3 mps 751 mmHg 65%
21:00 +20°C° 0 mm 3 mps 751 mmHg 71%
22:00 +20°C° 0 mm 3 mps 751 mmHg 74%
23:00 +19°C° 0 mm 3 mps 751 mmHg 77%

12 July, Sunday

Time Temperature Precipitation Wind Pressure Humidity
00:00 +18°C° 0 mm 3 mps 751 mmHg 80%
01:00 +18°C° 0 mm 3 mps 751 mmHg 81%
02:00 +17°C° 0 mm 3 mps 750 mmHg 82%
03:00 +17°C° 0 mm 3 mps 750 mmHg 83%
04:00 +17°C° 0 mm 3 mps 750 mmHg 82%
05:00 +17°C° 0 mm 3 mps 750 mmHg 80%
06:00 +18°C° 0 mm 3 mps 750 mmHg 79%
07:00 +19°C° 0 mm 3 mps 750 mmHg 73%
08:00 +21°C° 0 mm 4 mps 750 mmHg 68%
09:00 +22°C° 0 mm 4 mps 749 mmHg 62%
10:00 +23°C° 0 mm 4 mps 749 mmHg 57%
11:00 +25°C° 0 mm 4 mps 749 mmHg 53%
12:00 +27°C° 0 mm 5 mps 749 mmHg 49%
13:00 +27°C° 0 mm 5 mps 748 mmHg 49%
14:00 +27°C° 0 mm 5 mps 748 mmHg 49%
15:00 +27°C° 0 mm 5 mps 748 mmHg 48%
16:00 +27°C° 0 mm 5 mps 747 mmHg 51%
17:00 +26°C° 0 mm 5 mps 747 mmHg 54%
18:00 +26°C° 0 mm 5 mps 747 mmHg 56%
19:00 +23°C° 0.2 mm 4 mps 747 mmHg 64%
20:00 +22°C° 0.2 mm 3 mps 747 mmHg 71%
21:00 +20°C° 0.2 mm 2 mps 747 mmHg 79%
22:00 +19°C° 0.1 mm 2 mps 747 mmHg 82%
23:00 +18°C° 0.1 mm 2 mps 746 mmHg 86%
Show more